owner,sensor,date,latitude,longitude,vertical_datum,sea_water_practical_salinity,qcFlag 
TABS,ioos:station:wmo:42051:1,2017-06-01T00:00:00Z,29.6350,-93.6417,2.0,24.5069,11111222 
TABS,ioos:station:wmo:42051:1,2017-06-01T00:30:00Z,29.6350,-93.6417,2.0,24.4919,11111222 
TABS,ioos:station:wmo:42051:1,2017-06-01T01:00:00Z,29.6350,-93.6417,2.0,24.5028,11111222 
TABS,ioos:station:wmo:42051:1,2017-06-01T01:30:00Z,29.6350,-93.6417,2.0,24.5109,11111222 
TABS,ioos:station:wmo:42051:1,2017-06-01T02:00:00Z,29.6350,-93.6417,2.0,24.5137,11111222 
TABS,ioos:station:wmo:42051:1,2017-06-01T02:30:00Z,29.6350,-93.6417,2.0,24.5322,11111222 
TABS,ioos:station:wmo:42051:1,2017-06-01T03:00:00Z,29.6350,-93.6417,2.0,24.5389,11111222 
TABS,ioos:station:wmo:42051:1,2017-06-01T03:30:00Z,29.6350,-93.6417,2.0,24.5509,11111222 
TABS,ioos:station:wmo:42051:1,2017-06-01T04:00:00Z,29.6350,-93.6417,2.0,24.5552,11111222 
TABS,ioos:station:wmo:42051:1,2017-06-01T04:30:00Z,29.6350,-93.6417,2.0,24.5646,11111222 
TABS,ioos:station:wmo:42051:1,2017-06-01T05:00:00Z,29.6350,-93.6417,2.0,24.4158,11111222 
TABS,ioos:station:wmo:42051:1,2017-06-01T05:30:00Z,29.6350,-93.6417,2.0,24.415,11111222 
TABS,ioos:station:wmo:42051:1,2017-06-01T06:00:00Z,29.6350,-93.6417,2.0,24.399,11111222 
TABS,ioos:station:wmo:42051:1,2017-06-01T06:30:00Z,29.6350,-93.6417,2.0,24.4241,11111222 
TABS,ioos:station:wmo:42051:1,2017-06-01T07:00:00Z,29.6350,-93.6417,2.0,24.4196,11111222 
TABS,ioos:station:wmo:42051:1,2017-06-01T07:30:00Z,29.6350,-93.6417,2.0,24.4202,11111222 
TABS,ioos:station:wmo:42051:1,2017-06-01T08:00:00Z,29.6350,-93.6417,2.0,24.4165,11111222 
TABS,ioos:station:wmo:42051:1,2017-06-01T08:30:00Z,29.6350,-93.6417,2.0,24.4324,11111222 
TABS,ioos:station:wmo:42051:1,2017-06-01T09:00:00Z,29.6350,-93.6417,2.0,24.4403,11111222 
TABS,ioos:station:wmo:42051:1,2017-06-01T09:30:00Z,29.6350,-93.6417,2.0,24.4553,11111222 
TABS,ioos:station:wmo:42051:1,2017-06-01T10:00:00Z,29.6350,-93.6417,2.0,24.4641,11111222 
TABS,ioos:station:wmo:42051:1,2017-06-01T10:30:00Z,29.6350,-93.6417,2.0,24.4668,11111222 
TABS,ioos:station:wmo:42051:1,2017-06-01T11:00:00Z,29.6350,-93.6417,2.0,24.474,11111222 
TABS,ioos:station:wmo:42051:1,2017-06-01T11:30:00Z,29.6350,-93.6417,2.0,24.4865,11111222 
TABS,ioos:station:wmo:42051:1,2017-06-01T12:00:00Z,29.6350,-93.6417,2.0,24.491,11111222 
TABS,ioos:station:wmo:42051:1,2017-06-01T12:30:00Z,29.6350,-93.6417,2.0,24.4882,11111222 
TABS,ioos:station:wmo:42051:1,2017-06-01T13:00:00Z,29.6350,-93.6417,2.0,24.457,11111222 
TABS,ioos:station:wmo:42051:1,2017-06-01T13:30:00Z,29.6350,-93.6417,2.0,24.5219,11111222 
TABS,ioos:station:wmo:42051:1,2017-06-01T14:00:00Z,29.6350,-93.6417,2.0,24.4755,11111222 
TABS,ioos:station:wmo:42051:1,2017-06-01T14:30:00Z,29.6350,-93.6417,2.0,24.5162,11111222 
TABS,ioos:station:wmo:42051:1,2017-06-01T15:00:00Z,29.6350,-93.6417,2.0,24.5262,11111222 
TABS,ioos:station:wmo:42051:1,2017-06-01T15:30:00Z,29.6350,-93.6417,2.0,24.3383,11111222 
TABS,ioos:station:wmo:42051:1,2017-06-01T16:00:00Z,29.6350,-93.6417,2.0,24.3185,11111222 
TABS,ioos:station:wmo:42051:1,2017-06-01T16:30:00Z,29.6350,-93.6417,2.0,23.4544,11111222 
TABS,ioos:station:wmo:42051:1,2017-06-01T17:00:00Z,29.6350,-93.6417,2.0,23.1686,11111222 
TABS,ioos:station:wmo:42051:1,2017-06-01T17:30:00Z,29.6350,-93.6417,2.0,23.0143,11111222 
TABS,ioos:station:wmo:42051:1,2017-06-01T18:00:00Z,29.6350,-93.6417,2.0,22.958,11111222 
TABS,ioos:station:wmo:42051:1,2017-06-01T18:30:00Z,29.6350,-93.6417,2.0,23.0405,11111222 
TABS,ioos:station:wmo:42051:1,2017-06-01T19:00:00Z,29.6350,-93.6417,2.0,23.0256,11111222 
TABS,ioos:station:wmo:42051:1,2017-06-01T19:30:00Z,29.6350,-93.6417,2.0,22.9732,11111222 
TABS,ioos:station:wmo:42051:1,2017-06-01T20:00:00Z,29.6350,-93.6417,2.0,22.9618,11111222 
TABS,ioos:station:wmo:42051:1,2017-06-01T20:30:00Z,29.6350,-93.6417,2.0,22.9039,11111222 
TABS,ioos:station:wmo:42051:1,2017-06-01T21:00:00Z,29.6350,-93.6417,2.0,22.9461,11111222 
TABS,ioos:station:wmo:42051:1,2017-06-01T21:30:00Z,29.6350,-93.6417,2.0,22.9663,11111222 
TABS,ioos:station:wmo:42051:1,2017-06-01T22:00:00Z,29.6350,-93.6417,2.0,23.0261,11111222 
TABS,ioos:station:wmo:42051:1,2017-06-01T22:30:00Z,29.6350,-93.6417,2.0,23.0922,11111222 
TABS,ioos:station:wmo:42051:1,2017-06-01T23:00:00Z,29.6350,-93.6417,2.0,23.1771,11111222 
TABS,ioos:station:wmo:42051:1,2017-06-01T23:30:00Z,29.6350,-93.6417,2.0,23.0939,11111222 
TABS,ioos:station:wmo:42051:1,2017-06-02T00:00:00Z,29.6350,-93.6417,2.0,23.1931,11111222 
TABS,ioos:station:wmo:42051:1,2017-06-02T00:30:00Z,29.6350,-93.6417,2.0,22.9823,11111222 
TABS,ioos:station:wmo:42051:1,2017-06-02T01:00:00Z,29.6350,-93.6417,2.0,23.2076,11111222 
TABS,ioos:station:wmo:42051:1,2017-06-02T01:30:00Z,29.6350,-93.6417,2.0,23.2449,11111222 
TABS,ioos:station:wmo:42051:1,2017-06-02T02:00:00Z,29.6350,-93.6417,2.0,23.2466,11111222 
TABS,ioos:station:wmo:42051:1,2017-06-02T02:30:00Z,29.6350,-93.6417,2.0,23.1603,11111222 
TABS,ioos:station:wmo:42051:1,2017-06-02T03:00:00Z,29.6350,-93.6417,2.0,23.0346,11111222 
TABS,ioos:station:wmo:42051:1,2017-06-02T03:30:00Z,29.6350,-93.6417,2.0,22.7838,11111222 
TABS,ioos:station:wmo:42051:1,2017-06-02T04:00:00Z,29.6350,-93.6417,2.0,22.5502,11111222 
TABS,ioos:station:wmo:42051:1,2017-06-02T04:30:00Z,29.6350,-93.6417,2.0,22.3458,11111222 
TABS,ioos:station:wmo:42051:1,2017-06-02T05:00:00Z,29.6350,-93.6417,2.0,22.233,11111222 
TABS,ioos:station:wmo:42051:1,2017-06-02T05:30:00Z,29.6350,-93.6417,2.0,21.858,11111222 
TABS,ioos:station:wmo:42051:1,2017-06-02T06:00:00Z,29.6350,-93.6417,2.0,21.4358,11111222 
TABS,ioos:station:wmo:42051:1,2017-06-02T06:30:00Z,29.6350,-93.6417,2.0,21.076,11111222 
TABS,ioos:station:wmo:42051:1,2017-06-02T07:00:00Z,29.6350,-93.6417,2.0,20.7923,11111222 
TABS,ioos:station:wmo:42051:1,2017-06-02T07:30:00Z,29.6350,-93.6417,2.0,20.5733,11111222 
TABS,ioos:station:wmo:42051:1,2017-06-02T08:00:00Z,29.6350,-93.6417,2.0,20.4325,11111222 
TABS,ioos:station:wmo:42051:1,2017-06-02T08:30:00Z,29.6350,-93.6417,2.0,20.3486,11111222 
TABS,ioos:station:wmo:42051:1,2017-06-02T09:00:00Z,29.6350,-93.6417,2.0,20.1299,11111222 
TABS,ioos:station:wmo:42051:1,2017-06-02T09:30:00Z,29.6350,-93.6417,2.0,20.14,11111222 
TABS,ioos:station:wmo:42051:1,2017-06-02T10:00:00Z,29.6350,-93.6417,2.0,20.0262,11111222 
TABS,ioos:station:wmo:42051:1,2017-06-02T10:30:00Z,29.6350,-93.6417,2.0,19.8897,11111222 
TABS,ioos:station:wmo:42051:1,2017-06-02T11:00:00Z,29.6350,-93.6417,2.0,19.8091,11111222 
TABS,ioos:station:wmo:42051:1,2017-06-02T11:30:00Z,29.6350,-93.6417,2.0,19.823,11111222 
TABS,ioos:station:wmo:42051:1,2017-06-02T12:00:00Z,29.6350,-93.6417,2.0,19.9403,11111222 
TABS,ioos:station:wmo:42051:1,2017-06-02T12:30:00Z,29.6350,-93.6417,2.0,19.9066,11111222 
TABS,ioos:station:wmo:42051:1,2017-06-02T13:00:00Z,29.6350,-93.6417,2.0,19.8893,11111222 
TABS,ioos:station:wmo:42051:1,2017-06-02T13:30:00Z,29.6350,-93.6417,2.0,19.9506,11111222 
TABS,ioos:station:wmo:42051:1,2017-06-02T14:00:00Z,29.6350,-93.6417,2.0,20.067,11111222 
TABS,ioos:station:wmo:42051:1,2017-06-02T14:30:00Z,29.6350,-93.6417,2.0,20.1829,11111222 
TABS,ioos:station:wmo:42051:1,2017-06-02T15:00:00Z,29.6350,-93.6417,2.0,20.2166,11111222 
TABS,ioos:station:wmo:42051:1,2017-06-02T15:30:00Z,29.6350,-93.6417,2.0,20.2857,11111222 
TABS,ioos:station:wmo:42051:1,2017-06-02T16:00:00Z,29.6350,-93.6417,2.0,20.3007,11111222 
TABS,ioos:station:wmo:42051:1,2017-06-02T16:30:00Z,29.6350,-93.6417,2.0,20.2682,11111222 
TABS,ioos:station:wmo:42051:1,2017-06-02T17:00:00Z,29.6350,-93.6417,2.0,20.2901,11111222 
TABS,ioos:station:wmo:42051:1,2017-06-02T17:30:00Z,29.6350,-93.6417,2.0,20.3731,11111222 
TABS,ioos:station:wmo:42051:1,2017-06-02T18:00:00Z,29.6350,-93.6417,2.0,20.4636,11111222 
TABS,ioos:station:wmo:42051:1,2017-06-02T18:30:00Z,29.6350,-93.6417,2.0,20.5206,11111222 
TABS,ioos:station:wmo:42051:1,2017-06-02T19:00:00Z,29.6350,-93.6417,2.0,20.4983,11111222 
TABS,ioos:station:wmo:42051:1,2017-06-02T19:30:00Z,29.6350,-93.6417,2.0,20.8335,11111222 
TABS,ioos:station:wmo:42051:1,2017-06-02T20:00:00Z,29.6350,-93.6417,2.0,21.6187,11111222 
TABS,ioos:station:wmo:42051:1,2017-06-02T20:30:00Z,29.6350,-93.6417,2.0,20.4569,11111222 
TABS,ioos:station:wmo:42051:1,2017-06-02T21:00:00Z,29.6350,-93.6417,2.0,19.0638,11111222 
TABS,ioos:station:wmo:42051:1,2017-06-02T21:30:00Z,29.6350,-93.6417,2.0,18.4672,11111222 
TABS,ioos:station:wmo:42051:1,2017-06-02T22:00:00Z,29.6350,-93.6417,2.0,17.6264,11111222 
TABS,ioos:station:wmo:42051:1,2017-06-02T22:30:00Z,29.6350,-93.6417,2.0,17.5864,11111222 
TABS,ioos:station:wmo:42051:1,2017-06-02T23:00:00Z,29.6350,-93.6417,2.0,17.4172,11111222 
TABS,ioos:station:wmo:42051:1,2017-06-02T23:30:00Z,29.6350,-93.6417,2.0,17.534,11111222 
TABS,ioos:station:wmo:42051:1,2017-06-03T00:00:00Z,29.6350,-93.6417,2.0,17.3286,11111222 
TABS,ioos:station:wmo:42051:1,2017-06-03T00:30:00Z,29.6350,-93.6417,2.0,16.6475,11111222 
TABS,ioos:station:wmo:42051:1,2017-06-03T01:00:00Z,29.6350,-93.6417,2.0,16.521,11111222 
TABS,ioos:station:wmo:42051:1,2017-06-03T01:30:00Z,29.6350,-93.6417,2.0,16.5147,11111222 
TABS,ioos:station:wmo:42051:1,2017-06-03T02:00:00Z,29.6350,-93.6417,2.0,15.9005,11111222 
TABS,ioos:station:wmo:42051:1,2017-06-03T02:30:00Z,29.6350,-93.6417,2.0,15.972,11111222 
TABS,ioos:station:wmo:42051:1,2017-06-03T03:00:00Z,29.6350,-93.6417,2.0,15.8287,11111222 
TABS,ioos:station:wmo:42051:1,2017-06-03T03:30:00Z,29.6350,-93.6417,2.0,15.4618,11111222 
TABS,ioos:station:wmo:42051:1,2017-06-03T04:00:00Z,29.6350,-93.6417,2.0,15.2781,11111222 
TABS,ioos:station:wmo:42051:1,2017-06-03T04:30:00Z,29.6350,-93.6417,2.0,15.3448,11111222 
TABS,ioos:station:wmo:42051:1,2017-06-03T05:00:00Z,29.6350,-93.6417,2.0,15.11,11111222 
TABS,ioos:station:wmo:42051:1,2017-06-03T05:30:00Z,29.6350,-93.6417,2.0,15.1421,11111222 
TABS,ioos:station:wmo:42051:1,2017-06-03T06:00:00Z,29.6350,-93.6417,2.0,14.9154,11111222 
TABS,ioos:station:wmo:42051:1,2017-06-03T06:30:00Z,29.6350,-93.6417,2.0,14.8127,11111222 
TABS,ioos:station:wmo:42051:1,2017-06-03T07:00:00Z,29.6350,-93.6417,2.0,14.8078,11111222 
TABS,ioos:station:wmo:42051:1,2017-06-03T07:30:00Z,29.6350,-93.6417,2.0,15.0055,11111222 
TABS,ioos:station:wmo:42051:1,2017-06-03T08:00:00Z,29.6350,-93.6417,2.0,14.8757,11111222 
TABS,ioos:station:wmo:42051:1,2017-06-03T08:30:00Z,29.6350,-93.6417,2.0,15.089,11111222 
TABS,ioos:station:wmo:42051:1,2017-06-03T09:00:00Z,29.6350,-93.6417,2.0,15.018,11111222 
TABS,ioos:station:wmo:42051:1,2017-06-03T09:30:00Z,29.6350,-93.6417,2.0,15.1707,11111222 
TABS,ioos:station:wmo:42051:1,2017-06-03T10:00:00Z,29.6350,-93.6417,2.0,15.2306,11111222 
TABS,ioos:station:wmo:42051:1,2017-06-03T10:30:00Z,29.6350,-93.6417,2.0,15.4019,11111222 
TABS,ioos:station:wmo:42051:1,2017-06-03T11:00:00Z,29.6350,-93.6417,2.0,15.5927,11111222 
TABS,ioos:station:wmo:42051:1,2017-06-03T11:30:00Z,29.6350,-93.6417,2.0,15.6693,11111222 
TABS,ioos:station:wmo:42051:1,2017-06-03T12:00:00Z,29.6350,-93.6417,2.0,15.604,11111222 
TABS,ioos:station:wmo:42051:1,2017-06-03T12:30:00Z,29.6350,-93.6417,2.0,16.0,11111222 
TABS,ioos:station:wmo:42051:1,2017-06-03T13:00:00Z,29.6350,-93.6417,2.0,15.927,11111222 
TABS,ioos:station:wmo:42051:1,2017-06-03T13:30:00Z,29.6350,-93.6417,2.0,16.0951,11111222 
TABS,ioos:station:wmo:42051:1,2017-06-03T14:00:00Z,29.6350,-93.6417,2.0,16.8336,11111222 
TABS,ioos:station:wmo:42051:1,2017-06-03T14:30:00Z,29.6350,-93.6417,2.0,17.5039,11111222 
TABS,ioos:station:wmo:42051:1,2017-06-03T15:00:00Z,29.6350,-93.6417,2.0,18.8999,11111222 
TABS,ioos:station:wmo:42051:1,2017-06-03T15:30:00Z,29.6350,-93.6417,2.0,19.031,11111222 
TABS,ioos:station:wmo:42051:1,2017-06-03T16:00:00Z,29.6350,-93.6417,2.0,19.328,11111222 
TABS,ioos:station:wmo:42051:1,2017-06-03T16:30:00Z,29.6350,-93.6417,2.0,19.2082,11111222 
TABS,ioos:station:wmo:42051:1,2017-06-03T17:00:00Z,29.6350,-93.6417,2.0,19.0737,11111222 
TABS,ioos:station:wmo:42051:1,2017-06-03T17:30:00Z,29.6350,-93.6417,2.0,19.7631,11111222 
TABS,ioos:station:wmo:42051:1,2017-06-03T18:00:00Z,29.6350,-93.6417,2.0,20.0772,11111222 
TABS,ioos:station:wmo:42051:1,2017-06-03T18:30:00Z,29.6350,-93.6417,2.0,20.132,11111222 
TABS,ioos:station:wmo:42051:1,2017-06-03T19:00:00Z,29.6350,-93.6417,2.0,20.5699,11111222 
TABS,ioos:station:wmo:42051:1,2017-06-03T19:30:00Z,29.6350,-93.6417,2.0,20.4112,11111222 
TABS,ioos:station:wmo:42051:1,2017-06-03T20:00:00Z,29.6350,-93.6417,2.0,17.9866,11111222 
TABS,ioos:station:wmo:42051:1,2017-06-03T20:30:00Z,29.6350,-93.6417,2.0,16.0736,11111222 
TABS,ioos:station:wmo:42051:1,2017-06-03T21:00:00Z,29.6350,-93.6417,2.0,15.1552,11111222 
TABS,ioos:station:wmo:42051:1,2017-06-03T21:30:00Z,29.6350,-93.6417,2.0,15.1445,11111222 
TABS,ioos:station:wmo:42051:1,2017-06-03T22:00:00Z,29.6350,-93.6417,2.0,14.3706,11111222 
TABS,ioos:station:wmo:42051:1,2017-06-03T22:30:00Z,29.6350,-93.6417,2.0,14.026,11111222 
TABS,ioos:station:wmo:42051:1,2017-06-03T23:00:00Z,29.6350,-93.6417,2.0,13.8478,11111222 
TABS,ioos:station:wmo:42051:1,2017-06-03T23:30:00Z,29.6350,-93.6417,2.0,13.6025,11111222 
TABS,ioos:station:wmo:42051:1,2017-06-04T00:00:00Z,29.6350,-93.6417,2.0,14.9259,11111222 
TABS,ioos:station:wmo:42051:1,2017-06-04T00:30:00Z,29.6350,-93.6417,2.0,14.4373,11111222 
TABS,ioos:station:wmo:42051:1,2017-06-04T01:00:00Z,29.6350,-93.6417,2.0,13.6625,11111222 
TABS,ioos:station:wmo:42051:1,2017-06-04T01:30:00Z,29.6350,-93.6417,2.0,13.0413,11111222 
TABS,ioos:station:wmo:42051:1,2017-06-04T02:00:00Z,29.6350,-93.6417,2.0,13.0727,11111222 
TABS,ioos:station:wmo:42051:1,2017-06-04T02:30:00Z,29.6350,-93.6417,2.0,12.5165,11111222 
TABS,ioos:station:wmo:42051:1,2017-06-04T03:00:00Z,29.6350,-93.6417,2.0,11.7419,11111222 
TABS,ioos:station:wmo:42051:1,2017-06-04T03:30:00Z,29.6350,-93.6417,2.0,11.5399,11111222 
TABS,ioos:station:wmo:42051:1,2017-06-04T04:00:00Z,29.6350,-93.6417,2.0,11.2875,11111222 
TABS,ioos:station:wmo:42051:1,2017-06-04T04:30:00Z,29.6350,-93.6417,2.0,11.4124,11111222 
TABS,ioos:station:wmo:42051:1,2017-06-04T05:00:00Z,29.6350,-93.6417,2.0,12.043,11111222 
TABS,ioos:station:wmo:42051:1,2017-06-04T05:30:00Z,29.6350,-93.6417,2.0,12.3495,11111222 
TABS,ioos:station:wmo:42051:1,2017-06-04T06:00:00Z,29.6350,-93.6417,2.0,12.6029,11111222 
TABS,ioos:station:wmo:42051:1,2017-06-04T06:30:00Z,29.6350,-93.6417,2.0,13.2923,11111222 
TABS,ioos:station:wmo:42051:1,2017-06-04T07:00:00Z,29.6350,-93.6417,2.0,13.8047,11111222 
TABS,ioos:station:wmo:42051:1,2017-06-04T07:30:00Z,29.6350,-93.6417,2.0,14.3955,11111222 
TABS,ioos:station:wmo:42051:1,2017-06-04T08:00:00Z,29.6350,-93.6417,2.0,14.8769,11111222 
TABS,ioos:station:wmo:42051:1,2017-06-04T08:30:00Z,29.6350,-93.6417,2.0,15.0623,11111222 
TABS,ioos:station:wmo:42051:1,2017-06-04T09:00:00Z,29.6350,-93.6417,2.0,15.3812,11111222 
TABS,ioos:station:wmo:42051:1,2017-06-04T09:30:00Z,29.6350,-93.6417,2.0,15.4364,11111222 
TABS,ioos:station:wmo:42051:1,2017-06-04T10:00:00Z,29.6350,-93.6417,2.0,15.3687,11111222 
TABS,ioos:station:wmo:42051:1,2017-06-04T10:30:00Z,29.6350,-93.6417,2.0,15.4905,11111222 
TABS,ioos:station:wmo:42051:1,2017-06-04T11:00:00Z,29.6350,-93.6417,2.0,15.3925,11111222 
TABS,ioos:station:wmo:42051:1,2017-06-04T11:30:00Z,29.6350,-93.6417,2.0,15.75,11111222 
TABS,ioos:station:wmo:42051:1,2017-06-04T12:00:00Z,29.6350,-93.6417,2.0,15.8574,11111222 
TABS,ioos:station:wmo:42051:1,2017-06-04T12:30:00Z,29.6350,-93.6417,2.0,16.2055,11111222 
TABS,ioos:station:wmo:42051:1,2017-06-04T13:00:00Z,29.6350,-93.6417,2.0,16.4093,11111222 
TABS,ioos:station:wmo:42051:1,2017-06-04T13:30:00Z,29.6350,-93.6417,2.0,16.3707,11111222 
TABS,ioos:station:wmo:42051:1,2017-06-04T14:00:00Z,29.6350,-93.6417,2.0,16.4014,11111222 
TABS,ioos:station:wmo:42051:1,2017-06-04T14:30:00Z,29.6350,-93.6417,2.0,16.6034,11111222 
TABS,ioos:station:wmo:42051:1,2017-06-04T15:00:00Z,29.6350,-93.6417,2.0,17.2254,11111222 
TABS,ioos:station:wmo:42051:1,2017-06-04T15:30:00Z,29.6350,-93.6417,2.0,17.1338,11111222 
TABS,ioos:station:wmo:42051:1,2017-06-04T16:00:00Z,29.6350,-93.6417,2.0,17.0171,11111222 
TABS,ioos:station:wmo:42051:1,2017-06-04T16:30:00Z,29.6350,-93.6417,2.0,16.6672,11111222 
TABS,ioos:station:wmo:42051:1,2017-06-04T17:00:00Z,29.6350,-93.6417,2.0,16.4335,11111222 
TABS,ioos:station:wmo:42051:1,2017-06-04T17:30:00Z,29.6350,-93.6417,2.0,14.9205,11111222 
TABS,ioos:station:wmo:42051:1,2017-06-04T18:00:00Z,29.6350,-93.6417,2.0,13.4572,11111222 
TABS,ioos:station:wmo:42051:1,2017-06-04T18:30:00Z,29.6350,-93.6417,2.0,12.5657,11111222 
TABS,ioos:station:wmo:42051:1,2017-06-04T19:00:00Z,29.6350,-93.6417,2.0,15.6716,11111222 
TABS,ioos:station:wmo:42051:1,2017-06-04T19:30:00Z,29.6350,-93.6417,2.0,15.6503,11111222 
TABS,ioos:station:wmo:42051:1,2017-06-04T20:00:00Z,29.6350,-93.6417,2.0,14.4883,11111222 
TABS,ioos:station:wmo:42051:1,2017-06-04T20:30:00Z,29.6350,-93.6417,2.0,13.9718,11111222 
TABS,ioos:station:wmo:42051:1,2017-06-04T21:00:00Z,29.6350,-93.6417,2.0,13.0126,11111222 
TABS,ioos:station:wmo:42051:1,2017-06-04T21:30:00Z,29.6350,-93.6417,2.0,12.7313,11111222 
TABS,ioos:station:wmo:42051:1,2017-06-04T22:00:00Z,29.6350,-93.6417,2.0,12.2365,11111222 
TABS,ioos:station:wmo:42051:1,2017-06-04T22:30:00Z,29.6350,-93.6417,2.0,11.5477,11111222 
TABS,ioos:station:wmo:42051:1,2017-06-04T23:00:00Z,29.6350,-93.6417,2.0,11.4977,11111222 
TABS,ioos:station:wmo:42051:1,2017-06-04T23:30:00Z,29.6350,-93.6417,2.0,11.649,11111222 
TABS,ioos:station:wmo:42051:1,2017-06-05T00:00:00Z,29.6350,-93.6417,2.0,11.5107,11111222 
TABS,ioos:station:wmo:42051:1,2017-06-05T00:30:00Z,29.6350,-93.6417,2.0,10.9748,11111222 
TABS,ioos:station:wmo:42051:1,2017-06-05T01:00:00Z,29.6350,-93.6417,2.0,10.384,11111222 
TABS,ioos:station:wmo:42051:1,2017-06-05T01:30:00Z,29.6350,-93.6417,2.0,10.1154,11111222 
TABS,ioos:station:wmo:42051:1,2017-06-05T02:00:00Z,29.6350,-93.6417,2.0,10.5356,11111222 
TABS,ioos:station:wmo:42051:1,2017-06-05T02:30:00Z,29.6350,-93.6417,2.0,10.5491,11111222 
TABS,ioos:station:wmo:42051:1,2017-06-05T03:00:00Z,29.6350,-93.6417,2.0,10.4485,11111222 
TABS,ioos:station:wmo:42051:1,2017-06-05T03:30:00Z,29.6350,-93.6417,2.0,9.8646,11111222 
TABS,ioos:station:wmo:42051:1,2017-06-05T04:00:00Z,29.6350,-93.6417,2.0,10.5302,11111222 
TABS,ioos:station:wmo:42051:1,2017-06-05T04:30:00Z,29.6350,-93.6417,2.0,10.9602,11111222 
TABS,ioos:station:wmo:42051:1,2017-06-05T05:00:00Z,29.6350,-93.6417,2.0,11.2173,11111222 
TABS,ioos:station:wmo:42051:1,2017-06-05T05:30:00Z,29.6350,-93.6417,2.0,11.0659,11111222 
TABS,ioos:station:wmo:42051:1,2017-06-05T06:00:00Z,29.6350,-93.6417,2.0,10.8041,11111222 
TABS,ioos:station:wmo:42051:1,2017-06-05T06:30:00Z,29.6350,-93.6417,2.0,11.0632,11111222 
TABS,ioos:station:wmo:42051:1,2017-06-05T07:00:00Z,29.6350,-93.6417,2.0,11.381,11111222 
TABS,ioos:station:wmo:42051:1,2017-06-05T07:30:00Z,29.6350,-93.6417,2.0,12.6237,11111222 
TABS,ioos:station:wmo:42051:1,2017-06-05T08:00:00Z,29.6350,-93.6417,2.0,13.4509,11111222 
TABS,ioos:station:wmo:42051:1,2017-06-05T08:30:00Z,29.6350,-93.6417,2.0,13.7845,11111222 
TABS,ioos:station:wmo:42051:1,2017-06-05T09:00:00Z,29.6350,-93.6417,2.0,13.4167,11111222 
TABS,ioos:station:wmo:42051:1,2017-06-05T09:30:00Z,29.6350,-93.6417,2.0,13.2508,11111222 
TABS,ioos:station:wmo:42051:1,2017-06-05T10:00:00Z,29.6350,-93.6417,2.0,12.2577,11111222 
TABS,ioos:station:wmo:42051:1,2017-06-05T10:30:00Z,29.6350,-93.6417,2.0,11.3133,11111222 
TABS,ioos:station:wmo:42051:1,2017-06-05T11:00:00Z,29.6350,-93.6417,2.0,11.1874,11111222 
TABS,ioos:station:wmo:42051:1,2017-06-05T11:30:00Z,29.6350,-93.6417,2.0,10.742,11111222 
TABS,ioos:station:wmo:42051:1,2017-06-05T12:00:00Z,29.6350,-93.6417,2.0,10.6338,11111222 
TABS,ioos:station:wmo:42051:1,2017-06-05T12:30:00Z,29.6350,-93.6417,2.0,10.6264,11111222 
TABS,ioos:station:wmo:42051:1,2017-06-05T13:00:00Z,29.6350,-93.6417,2.0,10.4792,11111222 
TABS,ioos:station:wmo:42051:1,2017-06-05T13:30:00Z,29.6350,-93.6417,2.0,10.3736,11111222 
TABS,ioos:station:wmo:42051:1,2017-06-05T14:00:00Z,29.6350,-93.6417,2.0,10.2489,11111222 
TABS,ioos:station:wmo:42051:1,2017-06-05T14:30:00Z,29.6350,-93.6417,2.0,10.0935,11111222 
TABS,ioos:station:wmo:42051:1,2017-06-05T15:00:00Z,29.6350,-93.6417,2.0,10.1475,11111222 
TABS,ioos:station:wmo:42051:1,2017-06-05T15:30:00Z,29.6350,-93.6417,2.0,10.136,11111222 
TABS,ioos:station:wmo:42051:1,2017-06-05T16:00:00Z,29.6350,-93.6417,2.0,10.1922,11111222 
TABS,ioos:station:wmo:42051:1,2017-06-05T16:30:00Z,29.6350,-93.6417,2.0,10.2353,11111222 
TABS,ioos:station:wmo:42051:1,2017-06-05T17:00:00Z,29.6350,-93.6417,2.0,10.4404,11111222 
TABS,ioos:station:wmo:42051:1,2017-06-05T17:30:00Z,29.6350,-93.6417,2.0,10.3353,11111222 
TABS,ioos:station:wmo:42051:1,2017-06-05T18:00:00Z,29.6350,-93.6417,2.0,8.657,11111222 
TABS,ioos:station:wmo:42051:1,2017-06-05T18:30:00Z,29.6350,-93.6417,2.0,8.4164,11111222 
TABS,ioos:station:wmo:42051:1,2017-06-05T19:00:00Z,29.6350,-93.6417,2.0,7.6785,11111222 
TABS,ioos:station:wmo:42051:1,2017-06-05T19:30:00Z,29.6350,-93.6417,2.0,7.653,11111222 
TABS,ioos:station:wmo:42051:1,2017-06-05T20:00:00Z,29.6350,-93.6417,2.0,8.2139,11111222 
TABS,ioos:station:wmo:42051:1,2017-06-05T20:30:00Z,29.6350,-93.6417,2.0,8.5258,11111222 
TABS,ioos:station:wmo:42051:1,2017-06-05T21:00:00Z,29.6350,-93.6417,2.0,8.5451,11111222 
TABS,ioos:station:wmo:42051:1,2017-06-05T21:30:00Z,29.6350,-93.6417,2.0,9.4962,11111222 
TABS,ioos:station:wmo:42051:1,2017-06-05T22:00:00Z,29.6350,-93.6417,2.0,8.0084,11111222 
TABS,ioos:station:wmo:42051:1,2017-06-05T22:30:00Z,29.6350,-93.6417,2.0,7.7128,11111222 
TABS,ioos:station:wmo:42051:1,2017-06-05T23:00:00Z,29.6350,-93.6417,2.0,7.3586,11111222 
TABS,ioos:station:wmo:42051:1,2017-06-05T23:30:00Z,29.6350,-93.6417,2.0,10.1395,11111222 
TABS,ioos:station:wmo:42051:1,2017-06-06T00:00:00Z,29.6350,-93.6417,2.0,9.3102,11111222 
TABS,ioos:station:wmo:42051:1,2017-06-06T00:30:00Z,29.6350,-93.6417,2.0,9.0834,11111222 
TABS,ioos:station:wmo:42051:1,2017-06-06T01:00:00Z,29.6350,-93.6417,2.0,9.8413,11111222 
TABS,ioos:station:wmo:42051:1,2017-06-06T01:30:00Z,29.6350,-93.6417,2.0,10.6373,11111222 
TABS,ioos:station:wmo:42051:1,2017-06-06T02:00:00Z,29.6350,-93.6417,2.0,10.6735,11111222 
TABS,ioos:station:wmo:42051:1,2017-06-06T02:30:00Z,29.6350,-93.6417,2.0,11.3095,11111222 
TABS,ioos:station:wmo:42051:1,2017-06-06T03:00:00Z,29.6350,-93.6417,2.0,11.336,11111222 
TABS,ioos:station:wmo:42051:1,2017-06-06T03:30:00Z,29.6350,-93.6417,2.0,12.9314,11111222 
TABS,ioos:station:wmo:42051:1,2017-06-06T04:00:00Z,29.6350,-93.6417,2.0,13.9217,11111222 
TABS,ioos:station:wmo:42051:1,2017-06-06T04:30:00Z,29.6350,-93.6417,2.0,14.3284,11111222 
TABS,ioos:station:wmo:42051:1,2017-06-06T05:00:00Z,29.6350,-93.6417,2.0,14.7473,11111222 
TABS,ioos:station:wmo:42051:1,2017-06-06T05:30:00Z,29.6350,-93.6417,2.0,14.6212,11111222 
TABS,ioos:station:wmo:42051:1,2017-06-06T06:00:00Z,29.6350,-93.6417,2.0,14.7047,11111222 
TABS,ioos:station:wmo:42051:1,2017-06-06T06:30:00Z,29.6350,-93.6417,2.0,14.6716,11111222 
TABS,ioos:station:wmo:42051:1,2017-06-06T07:00:00Z,29.6350,-93.6417,2.0,12.9003,11111222 
TABS,ioos:station:wmo:42051:1,2017-06-06T07:30:00Z,29.6350,-93.6417,2.0,12.2248,11111222 
TABS,ioos:station:wmo:42051:1,2017-06-06T08:00:00Z,29.6350,-93.6417,2.0,11.6109,11111222 
TABS,ioos:station:wmo:42051:1,2017-06-06T08:30:00Z,29.6350,-93.6417,2.0,11.0847,11111222 
TABS,ioos:station:wmo:42051:1,2017-06-06T09:00:00Z,29.6350,-93.6417,2.0,10.2795,11111222 
TABS,ioos:station:wmo:42051:1,2017-06-06T09:30:00Z,29.6350,-93.6417,2.0,9.9165,11111222 
TABS,ioos:station:wmo:42051:1,2017-06-06T10:00:00Z,29.6350,-93.6417,2.0,9.9675,11111222 
TABS,ioos:station:wmo:42051:1,2017-06-06T10:30:00Z,29.6350,-93.6417,2.0,8.7086,11111222 
TABS,ioos:station:wmo:42051:1,2017-06-06T11:00:00Z,29.6350,-93.6417,2.0,8.7695,11111222 
TABS,ioos:station:wmo:42051:1,2017-06-06T11:30:00Z,29.6350,-93.6417,2.0,8.8954,11111222 
TABS,ioos:station:wmo:42051:1,2017-06-06T12:00:00Z,29.6350,-93.6417,2.0,8.8495,11111222 
TABS,ioos:station:wmo:42051:1,2017-06-06T12:30:00Z,29.6350,-93.6417,2.0,9.8278,11111222 